N11DL CYDA-CYDB

Flight info

Callsign N11DL
Flight time 0h 59m
Altitude 11500
Route DCT
Aircraft AEST/L-SDFGRY/S

Departure

Time 2026-04-15 18:13
Airport Dawson City Airport (CYDA)

Arrival

Time 2026-04-15 19:12
Airport Burwash Airport (CYDB)
Time Latitude Longitude Altitude Speed Heading
2026-04-15 17:19 64.04641 -139.12238 1218 ft 0 kts 52°
2026-04-15 18:01 64.04642 -139.12182 1218 ft 0 kts 154°
2026-04-15 18:02 64.04624 -139.12200 1218 ft 8 kts 237°
2026-04-15 18:02 64.04569 -139.12358 1218 ft 8 kts 230°
2026-04-15 18:02 64.04540 -139.12444 1218 ft 10 kts 273°
2026-04-15 18:03 64.04527 -139.12490 1218 ft 1 kts 155°
2026-04-15 18:03 64.04522 -139.12464 1218 ft 4 kts 81°
2026-04-15 18:03 64.04529 -139.12436 1218 ft 0 kts 60°
2026-04-15 18:09 64.04534 -139.12398 1218 ft 2 kts 105°
2026-04-15 18:10 64.04492 -139.12327 1218 ft 10 kts 202°
2026-04-15 18:10 64.04418 -139.12518 1219 ft 22 kts 233°
2026-04-15 18:10 64.04301 -139.12839 1219 ft 29 kts 231°
2026-04-15 18:10 64.04191 -139.13143 1217 ft 26 kts 230°
2026-04-15 18:11 64.04069 -139.13480 1219 ft 26 kts 231°
2026-04-15 18:11 64.03941 -139.13829 1218 ft 31 kts 231°
2026-04-15 18:11 64.03858 -139.14055 1217 ft 16 kts 227°
2026-04-15 18:11 64.03799 -139.14159 1216 ft 12 kts 281°
2026-04-15 18:12 64.03829 -139.14143 1216 ft 1 kts 50°
2026-04-15 18:12 64.03829 -139.14142 1216 ft 0 kts 50°
2026-04-15 18:12 64.03853 -139.14077 1217 ft 34 kts 50°
2026-04-15 18:12 64.04173 -139.13200 1218 ft 101 kts 50°
2026-04-15 18:13 64.04656 -139.11848 1350 ft 117 kts 51°
2026-04-15 18:13 64.05203 -139.10308 1673 ft 127 kts 47°
2026-04-15 18:13 64.05828 -139.08948 2073 ft 124 kts 43°
2026-04-15 18:14 64.07072 -139.06144 2713 ft 126 kts 46°
2026-04-15 18:14 64.07683 -139.04695 3016 ft 127 kts 46°
2026-04-15 18:14 64.08301 -139.03174 3250 ft 133 kts 50°
2026-04-15 18:14 64.08852 -139.01487 3575 ft 130 kts 54°
2026-04-15 18:15 64.09405 -138.99863 3898 ft 128 kts 48°
2026-04-15 18:15 64.09996 -138.98356 4201 ft 127 kts 48°
2026-04-15 18:15 64.10586 -138.96855 4503 ft 127 kts 47°
2026-04-15 18:15 64.11183 -138.95347 4810 ft 128 kts 47°
2026-04-15 18:16 64.11910 -138.94273 5109 ft 126 kts
2026-04-15 18:16 64.12757 -138.94566 5402 ft 125 kts 354°
2026-04-15 18:16 64.13622 -138.94443 5702 ft 125 kts
2026-04-15 18:16 64.14488 -138.94578 5967 ft 126 kts 354°
2026-04-15 18:17 64.15338 -138.94122 6210 ft 127 kts 18°
2026-04-15 18:17 64.16151 -138.93313 6448 ft 130 kts 31°
2026-04-15 18:17 64.16965 -138.92354 6664 ft 134 kts 33°
2026-04-15 18:17 64.17504 -138.90652 6862 ft 135 kts 78°
2026-04-15 18:18 64.17368 -138.88581 7085 ft 134 kts 122°
2026-04-15 18:18 64.16645 -138.87299 7294 ft 134 kts 165°
2026-04-15 18:18 64.15715 -138.87257 7499 ft 135 kts 189°
2026-04-15 18:18 64.14795 -138.87732 7703 ft 136 kts 194°
2026-04-15 18:19 64.13868 -138.88025 7908 ft 136 kts 184°
2026-04-15 18:19 64.12913 -138.88100 8093 ft 139 kts 181°
2026-04-15 18:19 64.11933 -138.88125 8294 ft 142 kts 181°
2026-04-15 18:19 64.10929 -138.88147 8485 ft 146 kts 181°
2026-04-15 18:20 64.09905 -138.88181 8686 ft 148 kts 182°
2026-04-15 18:20 64.08876 -138.88222 8890 ft 148 kts 182°
2026-04-15 18:20 64.07845 -138.88272 9099 ft 148 kts 182°
2026-04-15 18:20 64.06813 -138.88330 9310 ft 148 kts 182°
2026-04-15 18:21 64.05782 -138.88389 9496 ft 150 kts 183°
2026-04-15 18:21 64.04701 -138.88459 9509 ft 162 kts 183°
2026-04-15 18:21 64.03527 -138.88546 9466 ft 175 kts 183°
2026-04-15 18:21 64.02280 -138.88641 9450 ft 183 kts 183°
2026-04-15 18:22 64.00989 -138.88737 9452 ft 188 kts 183°
2026-04-15 18:22 63.99665 -138.88832 9455 ft 192 kts 183°
2026-04-15 18:22 63.98319 -138.88923 9449 ft 194 kts 183°
2026-04-15 18:22 63.96965 -138.89013 9452 ft 195 kts 183°
2026-04-15 18:23 63.95605 -138.89100 9456 ft 196 kts 183°
2026-04-15 18:23 63.94228 -138.89186 9449 ft 199 kts 183°
2026-04-15 18:23 63.92858 -138.89272 9453 ft 200 kts 183°
2026-04-15 18:23 63.91457 -138.89361 9453 ft 202 kts 183°
2026-04-15 18:24 63.90049 -138.89451 9441 ft 204 kts 183°
2026-04-15 18:24 63.88628 -138.89542 9460 ft 204 kts 183°
2026-04-15 18:24 63.87205 -138.89631 9455 ft 204 kts 183°
2026-04-15 18:24 63.85791 -138.89724 9439 ft 202 kts 183°
2026-04-15 18:25 63.84385 -138.89812 9450 ft 203 kts 183°
2026-04-15 18:25 63.82971 -138.89896 9457 ft 203 kts 183°
2026-04-15 18:25 63.81548 -138.89983 9457 ft 204 kts 183°
2026-04-15 18:25 63.80124 -138.90071 9457 ft 206 kts 183°
2026-04-15 18:26 63.78693 -138.90161 9450 ft 206 kts 182°
2026-04-15 18:26 63.77260 -138.90250 9454 ft 206 kts 183°
2026-04-15 18:26 63.75827 -138.90340 9448 ft 206 kts 183°
2026-04-15 18:26 63.74390 -138.90431 9450 ft 206 kts 183°
2026-04-15 18:27 63.72958 -138.90520 9453 ft 206 kts 183°
2026-04-15 18:27 63.71522 -138.90607 9452 ft 206 kts 183°
2026-04-15 18:27 63.70104 -138.90694 9450 ft 206 kts 183°
2026-04-15 18:27 63.68673 -138.90783 9453 ft 206 kts 183°
2026-04-15 18:28 63.67236 -138.90871 9450 ft 206 kts 183°
2026-04-15 18:28 63.65800 -138.90960 9453 ft 206 kts 183°
2026-04-15 18:28 63.64368 -138.91049 9450 ft 206 kts 183°
2026-04-15 18:28 63.62931 -138.91140 9450 ft 206 kts 183°
2026-04-15 18:29 63.61498 -138.91228 9453 ft 206 kts 183°
2026-04-15 18:29 63.60064 -138.91318 9443 ft 207 kts 183°
2026-04-15 18:29 63.58628 -138.91408 9443 ft 207 kts 183°
2026-04-15 18:29 63.57192 -138.91497 9440 ft 206 kts 183°
2026-04-15 18:30 63.56237 -138.91556 9443 ft 206 kts 183°
2026-04-15 18:30 63.54804 -138.91645 9440 ft 206 kts 182°
2026-04-15 18:30 63.53369 -138.91731 9442 ft 206 kts 182°
2026-04-15 18:30 63.51936 -138.91816 9444 ft 206 kts 182°
2026-04-15 18:31 63.50501 -138.91903 9443 ft 206 kts 182°
2026-04-15 18:31 63.49067 -138.91991 9439 ft 206 kts 182°
2026-04-15 18:31 63.47629 -138.92078 9426 ft 207 kts 182°
2026-04-15 18:31 63.46189 -138.92164 9425 ft 207 kts 182°
2026-04-15 18:32 63.44750 -138.92249 9425 ft 207 kts 182°
2026-04-15 18:32 63.43313 -138.92334 9425 ft 207 kts 182°
2026-04-15 18:32 63.41877 -138.92421 9427 ft 207 kts 182°
2026-04-15 18:32 63.40441 -138.92509 9424 ft 207 kts 182°
2026-04-15 18:33 63.39006 -138.92598 9426 ft 206 kts 183°
2026-04-15 18:33 63.37574 -138.92688 9428 ft 206 kts 182°
2026-04-15 18:33 63.36157 -138.92775 9425 ft 206 kts 182°
2026-04-15 18:33 63.34724 -138.92863 9425 ft 206 kts 182°
2026-04-15 18:34 63.33291 -138.92951 9427 ft 206 kts 182°
2026-04-15 18:34 63.31837 -138.93040 9425 ft 206 kts 182°
2026-04-15 18:34 63.30423 -138.93124 9427 ft 206 kts 182°
2026-04-15 18:34 63.28986 -138.93208 9425 ft 206 kts 182°
2026-04-15 18:35 63.27553 -138.93289 9421 ft 206 kts 182°
2026-04-15 18:35 63.26116 -138.93374 9416 ft 206 kts 182°
2026-04-15 18:35 63.24682 -138.93460 9417 ft 206 kts 182°
2026-04-15 18:35 63.23250 -138.93548 9416 ft 206 kts 182°
2026-04-15 18:36 63.21815 -138.93635 9418 ft 206 kts 182°
2026-04-15 18:36 63.20380 -138.93721 9417 ft 206 kts 182°
2026-04-15 18:36 63.18948 -138.93805 9417 ft 206 kts 182°
2026-04-15 18:36 63.17512 -138.93888 9416 ft 206 kts 182°
2026-04-15 18:37 63.16080 -138.93974 9416 ft 206 kts 182°
2026-04-15 18:37 63.14643 -138.94067 9417 ft 206 kts 182°
2026-04-15 18:37 63.13205 -138.94156 9416 ft 206 kts 182°
2026-04-15 18:37 63.11769 -138.94242 9416 ft 206 kts 182°
2026-04-15 18:38 63.10334 -138.94327 9417 ft 206 kts 182°
2026-04-15 18:38 63.08898 -138.94410 9417 ft 207 kts 182°
2026-04-15 18:38 63.07459 -138.94492 9418 ft 207 kts 182°
2026-04-15 18:38 63.06021 -138.94573 9416 ft 207 kts 182°
2026-04-15 18:39 63.04582 -138.94659 9416 ft 207 kts 182°
2026-04-15 18:39 63.03160 -138.94743 9417 ft 207 kts 182°
2026-04-15 18:39 63.01718 -138.94828 9411 ft 207 kts 182°
2026-04-15 18:39 63.00279 -138.94914 9406 ft 207 kts 182°
2026-04-15 18:40 62.98838 -138.94998 9407 ft 207 kts 182°
2026-04-15 18:40 62.97399 -138.95082 9407 ft 207 kts 182°
2026-04-15 18:40 62.95959 -138.95166 9407 ft 207 kts 182°
2026-04-15 18:40 62.94519 -138.95251 9406 ft 207 kts 182°
2026-04-15 18:41 62.93080 -138.95335 9408 ft 207 kts 182°
2026-04-15 18:41 62.91642 -138.95419 9407 ft 207 kts 182°
2026-04-15 18:41 62.90206 -138.95504 9406 ft 206 kts 182°
2026-04-15 18:41 62.88768 -138.95587 9408 ft 206 kts 182°
2026-04-15 18:42 62.87351 -138.95668 9407 ft 206 kts 182°
2026-04-15 18:42 62.85917 -138.95750 9405 ft 206 kts 182°
2026-04-15 18:42 62.84488 -138.95834 9446 ft 204 kts 182°
2026-04-15 18:42 62.83077 -138.95918 9508 ft 202 kts 182°
2026-04-15 18:43 62.81664 -138.96000 9502 ft 204 kts 182°
2026-04-15 18:43 62.80244 -138.96081 9498 ft 205 kts 182°
2026-04-15 18:43 62.78819 -138.96165 9495 ft 205 kts 182°
2026-04-15 18:43 62.77396 -138.96246 9497 ft 205 kts 182°
2026-04-15 18:44 62.75969 -138.96328 9498 ft 205 kts 182°
2026-04-15 18:44 62.74543 -138.96409 9497 ft 205 kts 182°
2026-04-15 18:44 62.73112 -138.96493 9496 ft 206 kts 182°
2026-04-15 18:44 62.71683 -138.96577 9495 ft 205 kts 182°
2026-04-15 18:45 62.70255 -138.96661 9497 ft 205 kts 182°
2026-04-15 18:45 62.68827 -138.96746 9499 ft 206 kts 182°
2026-04-15 18:45 62.67396 -138.96831 9495 ft 206 kts 182°
2026-04-15 18:45 62.65961 -138.96915 9496 ft 206 kts 182°
2026-04-15 18:46 62.64527 -138.96997 9496 ft 206 kts 182°
2026-04-15 18:46 62.63093 -138.97077 9489 ft 206 kts 182°
2026-04-15 18:46 62.61657 -138.97157 9486 ft 207 kts 182°
2026-04-15 18:46 62.60220 -138.97239 9487 ft 207 kts 182°
2026-04-15 18:47 62.58801 -138.97321 9485 ft 206 kts 182°
2026-04-15 18:47 62.57366 -138.97402 9488 ft 206 kts 182°
2026-04-15 18:47 62.55933 -138.97483 9486 ft 206 kts 182°
2026-04-15 18:47 62.54498 -138.97564 9487 ft 206 kts 182°
2026-04-15 18:48 62.53060 -138.97645 9486 ft 206 kts 182°
2026-04-15 18:48 62.51625 -138.97727 9487 ft 206 kts 182°
2026-04-15 18:48 62.50190 -138.97811 9489 ft 206 kts 182°
2026-04-15 18:48 62.48751 -138.97894 9485 ft 207 kts 182°
2026-04-15 18:49 62.47316 -138.97978 9484 ft 206 kts 182°
2026-04-15 18:49 62.45884 -138.98060 9487 ft 206 kts 182°
2026-04-15 18:49 62.44449 -138.98142 9485 ft 206 kts 182°
2026-04-15 18:49 62.43014 -138.98221 9477 ft 206 kts 182°
2026-04-15 18:50 62.41578 -138.98301 9479 ft 207 kts 182°
2026-04-15 18:50 62.40145 -138.98383 9475 ft 206 kts 182°
2026-04-15 18:50 62.38715 -138.98463 9479 ft 205 kts 182°
2026-04-15 18:50 62.37305 -138.98542 9480 ft 206 kts 182°
2026-04-15 18:51 62.35874 -138.98623 9476 ft 206 kts 182°
2026-04-15 18:51 62.34443 -138.98705 9477 ft 205 kts 182°
2026-04-15 18:51 62.33013 -138.98786 9470 ft 206 kts 182°
2026-04-15 18:51 62.31576 -138.98866 9474 ft 206 kts 182°
2026-04-15 18:52 62.30144 -138.98947 9476 ft 206 kts 182°
2026-04-15 18:52 62.28712 -138.99028 9478 ft 206 kts 182°
2026-04-15 18:52 62.27278 -138.99109 9476 ft 206 kts 182°
2026-04-15 18:52 62.25845 -138.99189 9476 ft 206 kts 182°
2026-04-15 18:53 62.24414 -138.99269 9471 ft 206 kts 182°
2026-04-15 18:53 62.22984 -138.99350 9464 ft 206 kts 182°
2026-04-15 18:53 62.21557 -138.99430 9470 ft 205 kts 182°
2026-04-15 18:53 62.20129 -138.99508 9471 ft 205 kts 182°
2026-04-15 18:54 62.18717 -138.99587 9465 ft 205 kts 182°
2026-04-15 18:54 62.17291 -138.99667 9467 ft 205 kts 182°
2026-04-15 18:54 62.15865 -138.99745 9469 ft 205 kts 182°
2026-04-15 18:54 62.14441 -138.99824 9468 ft 205 kts 182°
2026-04-15 18:55 62.13016 -138.99902 9465 ft 205 kts 182°
2026-04-15 18:55 62.11588 -138.99981 9460 ft 205 kts 182°
2026-04-15 18:55 62.10162 -139.00060 9458 ft 205 kts 182°
2026-04-15 18:55 62.08736 -139.00138 9459 ft 205 kts 182°
2026-04-15 18:56 62.07311 -139.00215 9458 ft 205 kts 182°
2026-04-15 18:56 62.05887 -139.00294 9459 ft 205 kts 182°
2026-04-15 18:56 62.04458 -139.00374 9460 ft 205 kts 182°
2026-04-15 18:56 62.03034 -139.00453 9460 ft 205 kts 182°
2026-04-15 18:57 62.01625 -139.00532 9454 ft 205 kts 182°
2026-04-15 18:57 62.00198 -139.00611 9449 ft 205 kts 182°
2026-04-15 18:57 61.98771 -139.00691 9448 ft 205 kts 182°
2026-04-15 18:57 61.97346 -139.00771 9450 ft 205 kts 182°
2026-04-15 18:58 61.95918 -139.00848 9449 ft 205 kts 182°
2026-04-15 18:58 61.94495 -139.00925 9449 ft 205 kts 182°
2026-04-15 18:58 61.93073 -139.01005 9453 ft 205 kts 182°
2026-04-15 18:58 61.91643 -139.01084 9450 ft 205 kts 182°
2026-04-15 18:59 61.90217 -139.01162 9449 ft 205 kts 182°
2026-04-15 18:59 61.88791 -139.01240 9449 ft 205 kts 182°
2026-04-15 18:59 61.87363 -139.01316 9449 ft 205 kts 182°
2026-04-15 18:59 61.85938 -139.01388 9447 ft 205 kts 182°
2026-04-15 19:00 61.84516 -139.01463 9335 ft 210 kts 182°
2026-04-15 19:00 61.83029 -139.01546 9193 ft 216 kts 182°
2026-04-15 19:00 61.81512 -139.01622 9024 ft 220 kts 180°
2026-04-15 19:00 61.79973 -139.01488 8850 ft 224 kts 176°
2026-04-15 19:01 61.78410 -139.01246 8587 ft 226 kts 176°
2026-04-15 19:01 61.76845 -139.00994 8370 ft 226 kts 176°
2026-04-15 19:01 61.75276 -139.00741 8154 ft 226 kts 176°
2026-04-15 19:01 61.73705 -139.00487 7948 ft 226 kts 175°
2026-04-15 19:02 61.72137 -139.00233 7753 ft 225 kts 176°
2026-04-15 19:02 61.70593 -138.99986 7545 ft 219 kts 176°
2026-04-15 19:02 61.69092 -138.99744 7318 ft 214 kts 175°
2026-04-15 19:02 61.67630 -138.99395 7095 ft 208 kts 173°
2026-04-15 19:03 61.66220 -138.99016 6861 ft 201 kts 173°
2026-04-15 19:03 61.64849 -138.98604 6606 ft 197 kts 169°
2026-04-15 19:03 61.63518 -138.98017 6372 ft 194 kts 168°
2026-04-15 19:03 61.62201 -138.97413 6125 ft 193 kts 168°
2026-04-15 19:04 61.60908 -138.96819 5871 ft 192 kts 168°
2026-04-15 19:04 61.59605 -138.96220 5615 ft 191 kts 168°
2026-04-15 19:04 61.58306 -138.95623 5365 ft 191 kts 168°
2026-04-15 19:04 61.56993 -138.95302 5117 ft 190 kts 185°
2026-04-15 19:05 61.55715 -138.95941 4909 ft 188 kts 197°
2026-04-15 19:05 61.54465 -138.96765 4664 ft 189 kts 198°
2026-04-15 19:05 61.53230 -138.97706 4435 ft 189 kts 202°
2026-04-15 19:05 61.52014 -138.98759 4207 ft 188 kts 202°
2026-04-15 19:06 61.50811 -138.99777 3993 ft 186 kts 202°
2026-04-15 19:06 61.49604 -139.00728 3831 ft 184 kts 199°
2026-04-15 19:06 61.48376 -139.01382 3684 ft 182 kts 190°
2026-04-15 19:06 61.47153 -139.01681 3694 ft 172 kts 188°
2026-04-15 19:07 61.45994 -139.01937 3719 ft 165 kts 188°
2026-04-15 19:07 61.44863 -139.02183 3729 ft 162 kts 187°
2026-04-15 19:07 61.43759 -139.02423 3731 ft 161 kts 188°
2026-04-15 19:07 61.42652 -139.02662 3727 ft 160 kts 188°
2026-04-15 19:08 61.41550 -139.02900 3726 ft 159 kts 187°
2026-04-15 19:08 61.40453 -139.03135 3729 ft 158 kts 187°
2026-04-15 19:08 61.39360 -139.03370 3728 ft 158 kts 187°
2026-04-15 19:08 61.38270 -139.03604 3734 ft 158 kts 187°
2026-04-15 19:09 61.37175 -139.03838 3728 ft 158 kts 187°
2026-04-15 19:09 61.36109 -139.04077 3728 ft 158 kts 187°
2026-04-15 19:09 61.34990 -139.04067 3687 ft 165 kts 163°
2026-04-15 19:09 61.34053 -139.02730 3634 ft 164 kts 129°
2026-04-15 19:10 61.33402 -139.00885 3667 ft 153 kts 123°
2026-04-15 19:10 61.32851 -138.99048 3640 ft 146 kts 110°
2026-04-15 19:10 61.32896 -138.97055 3636 ft 140 kts 56°
2026-04-15 19:10 61.33664 -138.95957 3590 ft 132 kts
2026-04-15 19:11 61.34460 -138.96450 3437 ft 119 kts 314°
2026-04-15 19:11 61.34864 -138.97899 3234 ft 112 kts 299°
2026-04-15 19:11 61.35269 -138.99198 3042 ft 104 kts 310°
2026-04-15 19:11 61.35728 -139.00325 2877 ft 102 kts 309°
2026-04-15 19:12 61.36156 -139.01524 2760 ft 104 kts 307°
2026-04-15 19:12 61.36596 -139.02734 2637 ft 103 kts 309°
2026-04-15 19:12 61.36995 -139.03802 2617 ft 78 kts 307°
2026-04-15 19:12 61.37198 -139.04341 2620 ft 23 kts 310°
2026-04-15 19:13 61.37267 -139.04508 2616 ft 4 kts 254°
2026-04-15 19:13 61.37241 -139.04489 2617 ft 9 kts 109°
2026-04-15 19:13 61.37204 -139.04346 2619 ft 13 kts 125°
2026-04-15 19:13 61.37133 -139.04164 2620 ft 19 kts 128°
2026-04-15 19:14 61.37045 -139.03926 2618 ft 24 kts 125°
2026-04-15 19:14 61.36939 -139.03640 2613 ft 25 kts 129°
2026-04-15 19:14 61.36858 -139.03431 2614 ft 16 kts 127°
2026-04-15 19:14 61.36872 -139.03273 2617 ft 11 kts 37°
2026-04-15 19:15 61.36907 -139.03186 2619 ft 8 kts 77°
2026-04-15 19:15 61.36920 -139.03106 2619 ft 1 kts 22°
2026-04-15 19:15 61.36926 -139.03105 2620 ft 3 kts 350°
2026-04-15 19:15 61.36934 -139.03116 2621 ft 0 kts 309°